Weather in Perechin

Ukraine / Zakarpattia District     48˚44′25″N   22˚28′23″E
temp.,
°C
wind,
m/s
gust,
m/s
humid.,
%
clouds,
%
prec.,
mm/h
press.,
hPa
HPBL,
m
2 december, wed
wed223:00−3˚ne12620 0.0 102622
02:00−3˚ne12550 0.0 102621
05:00−4˚ne12510 0.0 102521
08:00−4˚ne12490 0.0 102521
11:00+1˚e01390 0.0 1025146
14:00+2˚ssw11380 0.0 1023300
17:00−2˚e11550 0.0 102221
20:00−3˚ene12504 0.0 102221
3 december, thu
thu323:00−2˚e224761 0.0 102122
02:00−2˚e225265 0.0 102022
05:00−2˚ene22565 0.0 101924
08:00−2˚e125826 0.0 101822
11:00+2˚ese115099 0.0 101657
14:00+5˚se115195 0.0 101467
17:00+1˚ese115789 0.0 101322
20:00+1˚ese125195 0.0 101322
4 december, fri
fri423:00+1˚ese115296 0.0 101222
02:00+1˚e125398 0.0 101222
05:00+2˚e1256100 0.0 101022
08:00+1˚e126194 0.0 101022
11:00+6˚se125751 0.0 101082
14:00+7˚s116353 0.0 100957
17:00+2˚e22716 0.0 101022
20:00+2˚ese22778 0.0 101124
5 december, sat
sat523:00+3˚ese22820 0.0 101124
02:00+3˚ese22850 0.0 101222
05:00+3˚e12850 0.0 101122
08:00+3˚e228510 0.0 101222
11:00+7˚se127838 0.0 101272
14:00+9˚se157524 0.0 1012228
17:00+6˚ese24849 0.0 101278
20:00+5˚e238541 0.0 101359
6 december, sun
sun623:00+5˚e2285100 0.0 101435
02:00+5˚e2285100 0.0 101428
05:00+5˚e2285100 0.0 101428
08:00+4˚ene2285100 0.0 101324
11:00+8˚e2275100 0.0 101268
14:00+10˚e1571100 0.0 1010329
17:00+7˚e3117682 0.0 1009379
20:00+6˚ese277888 0.0 1009266